Location: Cwrt-newydd
(52.1000°N, 4.2167°W)
Time: 16:22:12
(UTC+00:00)

Daily predictions for brighter satellites

Satellite Brightness Start Highest point End
(mag) Time Altitude Azimuth Time Altitude Azimuth Time Altitude Azimuth
Cosmos 773 Rocket 4.2 17:13:22 10° NNW 17:18:22 46° ENE 17:23:18 10° SE
ATLAS 5 CENTAUR R/B 2.6 17:16:43 10° S 17:20:10 27° ESE 17:23:58 10° ENE
Meteor 2-5 Rocket 4.3 17:15:17 10° SSE 17:20:20 37° E 17:25:23 10° NNE
CZ-4B R/B 3.3 17:19:54 10° NE 17:21:47 14° E 17:23:39 10° SE
SeaSat 1 3.2 17:19:26 10° NNE 17:24:14 53° NW 17:29:01 10° SW
Cosmos 1726 Rocket 4.3 17:21:29 10° N 17:25:22 30° ENE 17:29:14 10° SE
Landsat 5 3.5 17:21:51 10° NNE 17:25:49 55° ESE 17:29:37 10° S
NOAA 12 4.1 17:25:03 10° SSE 17:30:17 86° ENE 17:35:34 10° NNW
CZ-4C R/B 2.6 17:33:55 10° NNE 17:37:05 76° ESE 17:40:14 10° S
Cosmos 2279 Rocket 4.1 17:31:17 10° N 17:37:25 53° ENE 17:43:31 10° SSE
Cosmos 2263 Rocket 2.5 17:33:19 10° S 17:38:46 51° ESE 17:44:16 10° NE
Cosmos 1953 4.1 17:35:48 10° NNW 17:39:27 35° W 17:43:05 10° SSW
CORIOLIS 4.2 17:34:53 10° SSE 17:40:18 88° ENE 17:45:43 10° NNW
Cosmos 1455 3.7 17:38:31 10° NNE 17:40:56 16° ENE 17:43:21 10° ESE
NOAA 11 4.2 17:36:29 10° SSE 17:41:59 83° ENE 17:47:32 10° NNW
COSMO-SKYMED 1 3.6 17:39:15 10° NE 17:42:55 26° E 17:46:33 10° SSE
USA 234 3.5 17:37:39 10° E 17:44:03 59° N 17:50:29 10° WNW
Cosmos 1536 Rocket 3.7 17:40:01 10° SSW 17:44:24 83° W 17:48:52 10° N
SMAP 3.4 17:39:48 10° S 17:44:27 74° WSW 17:49:08 10° NNW
Cosmos 1300 2.6 17:41:05 10° N 17:44:54 65° ENE 17:48:41 10° SSE
COSMOS 2455 4.0 17:40:54 10° SSE 17:45:34 24° ESE 17:49:35 12° ENE
Cosmos 1939 Rocket 3.0 17:44:14 10° SSE 17:48:16 56° ENE 17:52:17 10° N
Cosmos 1538 Rocket 4.2 17:43:48 10° NNW 17:48:49 48° ENE 17:53:49 10° SE
Cosmos 1634 Rocket 4.1 17:43:38 10° N 17:49:55 89° W 17:56:12 10° S
Okean-O 3.4 17:48:00 10° ESE 17:51:49 29° ENE 17:55:38 10° N
ATLAS 3B R/B 3.8 17:46:17 10° NW 17:52:56 51° WSW 17:59:52 10° SSE
Cosmos 1943 3.6 17:50:23 10° NW 17:56:02 68° WSW 18:01:38 10° SSE
MOS 1 Rocket 4.0 17:52:31 10° NE 17:56:12 26° E 17:59:49 10° SSE
Okean O Rocket 1.9 17:52:00 10° S 17:56:26 73° WSW 18:00:53 10° NNW
OPS 8737 4.2 17:55:15 10° NW 17:58:16 76° NE 18:02:02 10° SE
ARGOS 4.0 17:53:53 10° ESE 17:58:20 27° ENE 18:02:48 10° N
Meteor 1-24 Rocket 3.7 17:53:13 10° S 17:58:26 56° E 18:03:37 10° NNE
CZ-4 R/B 2.1 17:54:55 10° SE 17:58:34 32° ENE 18:02:11 10° N
Cosmos 1025 Rocket 4.3 17:55:08 10° SW 17:59:14 41° WNW 18:03:25 10° N
Cosmos 1315 Rocket 2.8 17:55:20 10° NNW 17:59:19 85° WSW 18:03:18 10° S
Cosmos 1354 Rocket 4.0 17:56:43 10° SSW 18:02:02 75° ESE 18:07:23 10° NNE
Feng Yun 1-1 Rocket 4.1 17:57:35 10° SSE 18:02:58 71° ENE 18:08:32 10° NNW
CZ-2C R/B 4.5 18:04:57 12° ESE 18:04:57 12° ESE 18:06:06 10° ESE
ERS-2 3.3 18:03:35 19° ENE 18:04:45 23° E 18:07:41 10° SSE
Cosmos 968 Rocket 4.1 18:00:28 10° SW 18:05:29 56° WNW 18:10:32 10° NNE
H-2A R/B 4.0 18:02:22 10° SSW 18:06:09 39° W 18:10:05 10° NNW
Cosmos 2082 Rocket 3.9 18:04:34 10° NNW 18:08:01 16° NNE 18:09:49 14° NE
Cosmos 1833 Rocket 4.0 18:04:35 10° NNW 18:08:41 20° NNE 18:10:32 17° ENE
BREEZE-M DEB (TANK) 2.3 18:07:45 10° WSW 18:10:09 46° S 18:11:06 25° ESE
Cosmos 1606 Rocket 3.7 18:11:35 10° NNW 18:15:59 77° W 18:20:22 10° S
H-2A R/B 2.4 18:13:07 10° N 18:17:36 69° WNW 18:21:58 10° SSW
USA-17 4.3 18:15:50 10° SW 18:19:20 78° NW 18:20:52 27° NE
Cosmos 2227 4.2 18:13:47 10° SSW 18:19:26 90° WNW 18:24:56 11° NNE
YAOGAN 1 2.8 18:15:44 10° SE 18:19:52 46° ENE 18:24:01 10° N
Cosmos 1892 Rocket 3.6 18:16:21 10° S 18:20:34 53° E 18:24:48 10° NNE
IRS-1C Rocket 4.0 18:17:53 10° SSE 18:23:08 77° ENE 18:28:24 10° NNW
NOSS 3-1 (C) 4.1 18:17:34 10° NW 18:24:19 52° NNE 18:30:09 19° E
Cosmos 2227 Rocket 4.0 18:19:55 10° W 18:24:33 25° NW 18:29:14 10° NNE
NOSS 7 (H) 4.4 18:22:07 10° SW 18:25:15 63° NW 18:26:27 31° NNE
CZ-4C R/B 2.8 18:23:50 10° WSW 18:29:01 53° NNW 18:33:51 17° NE
ISS -1.3 18:29:50 10° SSE 18:30:32 11° SSE 18:30:32 11° SSE
SKYMED 2 3.5 18:26:51 10° NNE 18:31:13 70° ESE 18:35:32 10° S
Lacrosse 5 1.8 18:26:52 10° WNW 18:31:58 89° SSW 18:35:29 20° ESE
Cosmos 2228 4.0 18:27:55 10° NNW 18:32:02 48° W 18:36:08 10° SSW
Cosmos 1844 Rocket 3.4 18:28:47 10° SSE 18:33:46 33° ESE 18:35:26 28° ENE
Helios 1A Rocket 2.9 18:34:32 10° SSE 18:38:35 56° ENE 18:42:41 10° N
Nadezhda 4 Rocket 4.0 18:34:11 10° SSE 18:40:15 56° E 18:46:18 10° NNE
SJ 16-02 2.1 18:36:44 10° SSE 18:40:20 31° ESE 18:40:20 31° ESE
USA 229 DEB 4.1 18:33:51 10° NW 18:40:44 50° NNE 18:44:38 27° E
USA 229 4.1 18:33:58 10° NW 18:40:49 49° NNE 18:44:41 27° E
Cosmos 1626 4.1 18:37:41 10° SW 18:40:58 29° WNW 18:44:16 10° N
CZ-2C R/B 3.3 18:36:06 10° S 18:41:24 79° WSW 18:47:03 10° NNW
CZ-2D R/B 3.8 18:39:20 10° S 18:43:08 59° W 18:46:58 10° NNW
Cosmos 2058 Rocket 3.2 18:40:46 10° NNW 18:45:16 78° W 18:49:46 10° S
Ariane Rocket 4.4 18:47:26 21° NNE 18:47:26 21° NNE 18:49:58 10° N
NOSS 3-4 (A) 4.3 18:40:26 10° W 18:46:11 43° NNW 18:50:26 20° NE
NOSS 3-4 (C) 4.3 18:40:32 10° W 18:46:17 43° NNW 18:50:32 20° NE
RESURS DK-1 3.6 18:42:35 10° WSW 18:46:28 38° NW 18:49:17 17° NNE
USA 281 4.2 18:47:26 24° NE 18:48:26 25° NE 18:53:35 10° NNW
USA 267 4.3 18:48:30 23° ESE 18:49:20 23° SE 18:54:21 10° S
Cosmos 2297 Rocket 4.3 18:45:48 10° WNW 18:49:38 18° NNW 18:53:28 10° NNE
H-2A R/B 1.8 18:44:57 10° SSE 18:49:55 80° ENE 18:55:04 10° NNW
CREW DRAGON DEMO-1 DEB 2.9 18:47:08 10° W 18:49:56 62° SSW 18:49:56 62° SSW
Cosmos 923 Rocket 3.9 18:45:19 10° NNW 18:50:41 68° ENE 18:55:17 14° SE
Meteor 2-1 Rocket 4.1 18:47:14 10° NNW 18:52:52 81° ENE 18:58:23 10° SSE
CZ-4B R/B 2.2 18:51:44 16° N 18:54:19 51° WNW 18:57:33 10° SSW
Meteor 2-10 Rocket 4.0 18:50:31 10° NNW 18:56:05 66° W 19:01:23 10° S
NOSS 3-1 (A) 4.1 18:49:28 10° NW 18:56:16 52° NNE 18:59:43 33° E
SAR-Lupe-4 3.6 18:56:43 61° SE 18:56:43 61° SE 18:59:56 10° S
CSL-04 Rocket 3.6 18:52:26 10° SSE 18:57:47 68° ENE 19:03:15 10° NNW
Okean 1-7 Rocket 3.5 18:53:43 10° S 18:58:15 83° E 19:01:55 16° NNE
Cosmos 1680 Rocket 3.4 18:53:13 10° NNW 18:58:28 61° ENE 19:00:38 34° SE
Cosmos 2344 4.2 18:52:32 10° NW 19:01:08 67° NE 19:08:26 25° ESE
Cosmos 158 Rocket 4.0 18:58:29 10° NNW 19:03:49 89° NE 19:09:14 10° SSE
ATLAS 2AS CENTAUR R/B 3.6 18:56:13 10° WSW 19:03:55 50° NNW 19:08:51 22° NE
ATLAS 5 CENTAUR R/B 2.0 19:00:20 10° WSW 19:04:26 55° NW 19:06:01 36° NNE
Cosmos 1818 3.8 18:59:50 10° SSW 19:04:58 45° ESE 19:05:21 44° ESE
Meteor 2-13 Rocket 4.3 18:59:20 10° S 19:05:26 78° E 19:11:37 10° NNE
SAR-Lupe-1 4.2 19:08:02 62° S 19:08:02 62° S 19:11:03 10° SSW
Cosmos 1553 Rocket 4.3 19:03:47 10° N 19:09:51 42° ENE 19:09:59 42° ENE
SL-08 RB Rocket 3.6 19:11:59 64° ENE 19:11:59 64° ENE 19:16:21 10° N
Cosmos 1626 Rocket 3.9 19:09:45 10° S 19:13:07 50° SSE 19:13:07 50° SSE
PSLV R/B 4.0 19:14:14 41° N 19:15:39 80° WNW 19:19:51 10° SSW
Cosmos 1455 2.7 19:13:10 10° NNW 19:16:54 57° W 19:20:39 10° S
Cosmos 2026 Rocket 4.0 19:11:41 10° SSE 19:17:33 52° E 19:18:42 46° ENE
COSMO-SKYMED 1 3.7 19:15:07 10° N 19:19:15 43° WNW 19:23:21 10° SW
Aureole 3 3.8 19:17:20 10° NNW 19:21:03 49° W 19:21:49 40° SW
Cosmos 2263 Rocket 3.4 19:17:37 10° WSW 19:22:55 38° NW 19:26:44 17° NNE
MetOp-A 4.4 19:25:38 49° NNE 19:25:38 49° NNE 19:30:00 10° N
COSMOS 2406 3.5 19:20:05 10° NNW 19:25:26 50° NE 19:25:26 50° NE
USA 234 3.2 19:24:50 49° E 19:26:49 80° NNE 19:33:24 10° WNW
Okean-O 3.9 19:23:58 10° S 19:28:10 41° W 19:32:23 10° NNW
Iridium 4 Rocket 3.6 19:22:31 10° N 19:28:22 83° E 19:33:48 10° S
COSMOS 2455 2.8 19:24:50 10° SW 19:30:53 82° NW 19:32:46 47° NNE
CZ-4 R/B 3.3 19:29:56 10° SSW 19:33:36 31° W 19:37:14 10° NNW
MOS 1 Rocket 4.3 19:31:00 13° N 19:34:38 40° WNW 19:38:38 10° SW
Cosmos 2112 Rocket 3.9 19:30:19 10° NNW 19:35:37 84° WSW 19:36:21 67° S
ARGOS 3.6 19:32:58 10° S 19:38:16 61° WSW 19:43:37 10° NNW
ERS-2 3.6 19:38:09 35° WNW 19:38:23 35° WNW 19:41:44 10° SW
Cosmos 2195 Rocket 4.4 19:36:37 10° S 19:42:57 87° E 19:49:20 10° N
CZ-2C R/B 3.4 19:46:27 43° S 19:46:27 43° S 19:50:09 10° S
Meteor 2-15 4.3 19:43:45 10° N 19:49:57 85° E 19:50:36 73° SSE
Cosmos 1627 Rocket 4.3 19:44:52 10° S 19:51:04 88° E 19:57:22 10° N
Cosmos 1844 3.7 19:46:35 10° SSW 19:51:52 79° SSW 19:51:52 79° SSW
Cosmos 2082 Rocket 3.3 19:48:14 10° NNW 19:51:41 32° N 19:51:41 32° N
Cosmos 1833 Rocket 3.2 19:48:06 10° NNW 19:52:15 47° N 19:52:15 47° N
Cosmos 1428 Rocket 4.4 19:52:20 10° S 19:58:38 88° W 20:05:00 10° N
Cosmos 1092 Rocket 4.3 20:00:54 10° SSW 20:07:01 62° WNW 20:13:10 10° N
Lacrosse 5 3.6 20:10:18 10° WNW 20:14:28 26° SW 20:14:44 26° SW
NOSS 3-1 (C) 4.2 20:08:23 10° NW 20:15:40 67° SW 20:17:37 52° S
Cosmos 1844 Rocket 3.3 20:11:53 10° SW 20:17:09 54° WNW 20:17:09 54° WNW
CZ-4C R/B 3.7 20:13:43 10° WNW 20:18:56 31° N 20:19:03 31° N
SJ 16-02 3.3 20:15:04 10° SW 20:17:23 26° WSW 20:17:23 26° WSW
USA 281 3.9 20:34:18 45° NNW 20:34:18 45° NNW 20:38:41 10° NNW
USA 229 DEB 4.0 20:24:56 10° NW 20:32:06 68° SW 20:32:06 68° SW
USA 229 4.0 20:25:02 10° NW 20:32:09 69° SW 20:32:09 69° SW
USA 267 4.2 20:35:52 38° SSW 20:35:52 38° SSW 20:39:43 10° SW
CZ-3B R/B 4.3 20:30:28 10° W 20:32:17 26° WSW 20:32:17 26° WSW
NOSS 3-1 (A) 4.2 20:40:22 10° NW 20:47:11 66° WSW 20:47:11 66° WSW
ATLAS 5 CENTAUR R/B 4.3 20:46:20 10° WNW 20:47:33 16° NW 20:47:33 16° NW
ATLAS 2AS CENTAUR R/B 4.0 20:49:32 10° WNW 20:56:17 35° N 20:56:17 35° N
USA 234 4.4 21:12:11 37° W 21:12:11 37° W 21:16:29 10° WNW
